Location: Silent Lake
(44.9206°N, 78.0708°W)
Time: 01:27:40
(UTC-04:00)

Daily predictions for brighter satellites

Satellite Brightness Start Highest point End
(mag) Time Altitude Azimuth Time Altitude Azimuth Time Altitude Azimuth
H-2A R/B 4.0 00:04:41 17° W 00:05:05 17° W 00:08:19 10° NW
Terra 3.5 00:05:46 26° W 00:05:46 26° W 00:09:13 10° NW
COSMOS 2428 3.5 00:05:01 40° W 00:06:14 46° WNW 00:11:44 10° NNE
NOSS 3-1 (A) 3.9 00:10:33 52° ENE 00:10:33 52° ENE 00:15:34 10° NE
ATLAS 2AS CENTAUR R/B 4.4 00:13:05 22° E 00:13:05 22° E 00:17:16 10° ENE
Cosmos 1980 4.1 00:28:32 60° N 00:28:32 60° N 00:33:09 10° NNE
SL-16 R/B 3.4 00:33:20 32° ENE 00:33:20 32° ENE 00:36:41 10° NE
CZ-2C R/B 4.0 00:45:36 42° NNW 00:45:36 42° NNW 00:48:48 10° NNW
CZ-4C R/B 2.9 00:38:11 10° NW 00:44:55 67° WSW 00:44:55 67° WSW
Cosmos 2333 Rocket 2.9 00:46:51 47° WNW 00:46:53 47° WNW 00:52:28 10° NNE
ATLAS 3B R/B 3.6 00:42:42 10° NNW 00:49:13 41° NE 00:51:14 34° E
Cosmos 2237 Rocket 2.8 00:56:36 51° NW 00:56:36 51° NW 01:01:44 10° NNE
Cosmos 2278 Rocket 3.6 00:52:41 10° NW 00:56:09 29° WNW 00:56:09 29° WNW
Cosmos 2315 Rocket 4.3 01:03:28 58° WNW 01:03:28 58° WNW 01:09:10 10° N
CZ-2C R/B 3.3 01:13:00 10° N 01:17:28 51° NNW 01:17:28 51° NNW
USA 215 3.9 01:16:48 10° ENE 01:21:27 42° E 01:21:27 42° E
Cosmos 1125 Rocket 4.3 01:22:06 10° NNW 01:25:57 48° N 01:25:57 48° N
Cosmos 2219 Rocket 4.2 01:27:00 18° WNW 01:28:51 21° NW 01:33:02 10° N
Nadezhda 1 Rocket 4.1 01:32:48 70° NNE 01:32:48 70° NNE 01:38:20 10° N
Cosmos 2184 Rocket 4.3 01:30:45 10° NNW 01:36:17 60° WNW 01:36:17 60° WNW
Cosmos 1603 4.2 01:50:08 55° NE 01:50:08 55° NE 01:54:43 10° NNE
Cosmos 1238 Rocket 4.2 01:56:42 49° N 01:56:42 49° N 02:00:49 10° N
Cosmos 2341 Rocket 4.0 01:50:24 10° N 01:56:23 73° ENE 01:56:23 73° ENE
USA 267 3.8 01:50:24 10° ESE 01:56:44 55° NNE 02:03:05 10° NW
Cosmos 2369 Rocket 2.6 01:51:41 10° NNW 01:56:56 57° NE 01:56:56 57° NE
ATLAS CENTAUR R/B 3.4 02:00:34 26° N 02:00:34 26° N 02:02:38 10° NNE
ATLAS 2AS CENTAUR R/B 2.9 02:00:28 74° SW 02:01:21 86° NW 02:09:32 10° NE
Gbstr 26 Del rocket 4.5 02:05:07 59° W 02:06:54 80° NNW 02:14:39 10° ENE
Meteor 1-15 Rocket 4.4 02:08:10 10° N 02:13:29 74° N 02:13:29 74° N
SL-16 R/B 3.4 02:15:11 31° WNW 02:15:33 31° NW 02:20:36 10° N
Resurs 1-4 Rocket 4.4 02:13:16 10° ENE 02:15:35 13° E 02:16:58 12° ESE
Cosmos 2154 Rocket 4.3 02:09:33 10° NNW 02:15:04 57° WNW 02:15:04 57° WNW
CZ-2D R/B 4.4 02:16:09 10° ENE 02:18:45 14° E 02:20:13 12° ESE
Cosmos 2228 4.4 02:16:22 10° N 02:19:37 36° NE 02:19:37 36° NE
Meteor 2-19 Rocket 4.4 02:17:36 10° NNW 02:23:10 70° NW 02:23:10 70° NW
Cosmos 1943 Rocket 2.8 02:18:28 10° NNW 02:24:01 51° ENE 02:25:05 45° E
Cosmos 540 Rocket 4.3 02:26:35 43° NW 02:26:35 43° NW 02:30:45 10° N
Cosmos 44 Rocket 4.1 02:30:16 10° NNW 02:34:50 46° NE 02:35:04 45° ENE
ATLAS 3B R/B 3.2 02:33:33 10° NW 02:38:26 41° WNW 02:38:26 41° WNW
Cosmos 1025 Rocket 4.5 02:44:44 31° NNW 02:44:44 31° NNW 02:47:24 10° N
USA 238 DEB 3.8 02:45:29 10° NW 02:52:03 58° WSW 02:52:03 58° WSW
USA 238 3.8 02:45:35 10° NW 02:52:12 58° WSW 02:52:12 58° WSW
CBERS-1 4.3 02:47:47 10° NNE 02:52:50 56° E 02:52:55 56° ESE
SL-16 R/B 3.3 02:49:25 22° SE 02:53:09 47° ENE 02:59:02 10° N
Cosmos 2181 Rocket 4.3 02:58:23 52° W 02:58:50 52° WNW 03:05:09 10° N
Cosmos 2058 Rocket 4.2 02:54:58 10° NNW 02:57:44 37° NNW 02:57:44 37° NNW
Cosmos 2218 Rocket 3.8 02:55:25 10° NNW 03:01:37 69° W 03:02:00 67° WSW
USA 215 3.6 02:59:50 10° NE 03:06:13 58° NNW 03:08:48 36° W
Cosmos 2366 rocket 3.9 03:02:01 10° NNW 03:08:19 70° W 03:09:00 64° SW
Cosmos 1656 Rocket 4.2 03:05:20 10° NNW 03:10:39 54° ENE 03:14:45 17° SE
GEOS 3 Rocket 3.9 03:07:46 10° NE 03:12:58 54° ESE 03:13:30 52° SE
Cosmos 1943 3.4 03:12:41 52° W 03:13:12 54° WNW 03:18:45 10° NNE
Cosmos 1626 Rocket 3.7 03:15:42 71° ENE 03:15:42 71° ENE 03:19:52 10° NNE
UNK 4.2 03:16:45 46° ESE 03:17:46 58° ENE 03:22:16 10° N
IRS-P3 4.0 03:12:43 10° N 03:18:04 75° WNW 03:18:31 70° WSW
ARIANE 5 R/B 3.4 03:13:07 10° NNE 03:18:07 43° E 03:19:42 34° SE
COSMOS 2455 3.2 03:12:11 10° NNW 03:18:12 63° NE 03:24:09 10° SE
Cosmos 1538 Rocket 4.2 03:18:24 53° WNW 03:18:33 53° WNW 03:23:38 10° NNE
Meteor 2-14 Rocket 4.3 03:14:24 10° N 03:20:35 80° W 03:21:59 55° S
SL-08 R/B 3.6 03:22:01 55° WNW 03:22:01 55° WNW 03:26:04 10° NNW
SL-8 Rocket 4.5 03:15:43 10° NNW 03:21:24 41° W 03:21:25 41° W
Genesis I 4.3 03:18:25 10° NNW 03:22:14 43° NE 03:25:23 14° ESE
Meteor 2-21 Rocket 4.3 03:16:05 10° NNW 03:22:15 73° W 03:23:27 57° SSW
Meteor 2-16 Rocket 4.3 03:16:09 10° N 03:22:16 87° W 03:24:01 50° S
NOSS 3-2 (C) 3.9 03:16:16 10° NW 03:23:47 86° SW 03:31:56 10° SSE
Cosmos 923 Rocket 3.9 03:26:00 66° S 03:26:45 86° ESE 03:32:09 10° NNE
Cosmos 1461 4.3 03:24:13 10° NW 03:26:11 27° NW 03:26:11 27° NW
RESURS DK-1 3.5 03:28:13 34° ESE 03:28:26 34° ESE 03:32:12 10° NE
Cosmos 44 3.4 03:27:51 10° NW 03:31:14 52° NW 03:31:14 52° NW
Cosmos 1805 4.4 03:29:48 10° N 03:33:33 41° ENE 03:34:50 31° ESE
Cosmos 1602 Rocket 3.5 03:35:28 72° W 03:35:28 72° W 03:39:57 10° N
Cosmos 1271 Rocket 4.2 03:34:16 10° N 03:37:44 34° ENE 03:39:35 21° SE
USA 267 3.2 03:33:20 10° SSE 03:39:44 56° SW 03:46:10 10° WNW
NPP 3.9 03:34:52 10° N 03:40:06 53° WNW 03:41:02 48° WSW
Cosmos 2369 Rocket 3.9 03:36:35 10° NW 03:38:41 18° WNW 03:38:41 18° WNW
CENTAUR R/B 3.7 03:34:12 10° NNW 03:41:48 57° NE 03:50:01 10° ESE
COBE Rocket 4.3 03:40:32 10° NNE 03:45:35 60° E 03:47:37 34° SSE
Cosmos 1766 3.3 03:42:37 10° NNW 03:46:21 67° WNW 03:46:21 67° WNW
Cosmos 724 4.2 03:41:09 10° NW 03:47:14 69° WSW 03:52:26 14° SSE
Cosmos 1842 3.3 03:47:25 64° SE 03:47:48 70° E 03:51:40 10° NNE
Tiangong 1 3.3 03:50:41 18° ESE 03:50:41 18° ESE 03:51:34 10° E
ADEOS Rocket 3.1 03:42:51 10° NNE 03:48:48 80° ESE 03:52:01 32° S
NOSS 3-4 (A) 3.5 03:49:10 42° SW 03:51:28 83° NW 03:58:02 10° NE
NOSS 3-4 (C) 3.5 03:49:15 42° SW 03:51:34 83° NW 03:58:10 10° NE
ATLAS 2AS CENTAUR R/B 4.3 03:47:52 15° W 03:53:31 32° NNW 04:00:38 10° NNE
Meteor 1-22 Rocket 4.3 03:49:46 10° NNW 03:55:12 53° W 03:56:23 44° SW
Nadezhda 3 Rocket 4.0 03:53:26 39° SSW 03:55:52 70° W 04:02:12 10° N
Resurs 1-4 Rocket 2.0 03:50:49 10° NNE 03:56:06 86° WNW 03:58:03 41° SSW
Abrixas 3.5 03:59:32 43° ENE 03:59:32 43° ENE 04:01:35 10° ENE
CZ-2D R/B 2.0 03:54:09 10° NNE 03:59:30 82° WNW 04:01:33 39° SSW
Cosmos 1544 2.9 03:56:10 10° N 03:59:53 89° WSW 04:00:19 68° S
COSMOS 2406 3.3 03:57:45 36° SSW 04:00:14 77° ESE 04:06:01 10° NNE
Cosmos 2112 Rocket 4.0 04:00:33 43° SW 04:02:16 73° WNW 04:07:34 10° NNE
MOZ.5/SAFIR/RUBIN 5/SL-8 4.0 03:59:03 13° SSE 04:03:05 68° ENE 04:07:45 10° N
NOSS 3-2 (A) 4.3 03:58:50 10° NW 04:05:53 43° WSW 04:13:23 10° S
Cosmos 1943 Rocket 3.3 04:02:50 10° NW 04:06:33 25° W 04:06:33 25° W
Cosmos 1953 2.3 04:05:52 10° N 04:09:53 80° E 04:12:01 26° SSE
Cosmos 389 Rocket 4.3 04:07:53 10° N 04:11:14 32° ENE 04:14:31 10° SE
Cosmos 1624 Rocket 3.9 04:11:37 10° NNW 04:16:51 83° WSW 04:22:04 10° SSE
Spot 4 Rocket 4.4 04:12:09 10° N 04:17:06 48° WNW 04:19:02 32° WSW
Cosmos 1758 Rocket 3.6 04:15:54 27° S 04:18:12 78° E 04:22:34 10° NNE
Cosmos 1707 4.4 04:15:14 10° SSE 04:18:41 31° E 04:22:08 10° NNE
Cosmos 1470 3.6 04:15:06 10° N 04:18:55 51° ENE 04:22:43 10° SSE
USA 32 3.9 04:18:55 25° S 04:22:02 79° W 04:27:19 10° N
Landsat 4 4.3 04:19:42 10° SSE 04:23:21 57° ENE 04:27:02 10° N
Meteor 1-4 Rocket 4.0 04:20:40 10° NW 04:23:12 24° WNW 04:23:12 24° WNW
Cosmos 1758 3.3 04:20:42 10° NNW 04:24:46 61° W 04:26:36 30° SSW
Cosmos-2242 3.6 04:20:31 10° N 04:24:54 59° E 04:29:13 10° SSE
ADEOS 3.9 04:21:12 10° N 04:26:12 48° WNW 04:28:35 28° SW
USA 161 1.4 04:27:46 45° S 04:28:33 76° W 04:31:30 10° NNW
UNKNOWN OBJECT B 2.8 04:25:46 10° N 04:29:42 69° WNW 04:31:33 31° SSW
Cosmos 2056 Rocket 3.4 04:24:31 10° NNW 04:29:52 70° WSW 04:35:05 10° S
DNEPR-1 R/B 4.4 04:29:27 10° NNW 04:33:35 51° NE 04:37:51 10° SE
Cosmos 921 Rocket 3.0 04:31:08 10° NNW 04:35:37 71° WSW 04:40:05 10° S
Cosmos 1680 Rocket 4.4 04:34:11 23° WSW 04:36:31 34° WNW 04:41:18 10° N
SL-16 R/B 3.3 04:34:30 24° SW 04:36:57 31° W 04:42:21 10° NW
Cosmos 374 Rocket 4.2 04:33:25 10° NW 04:37:09 60° SW 04:41:05 10° SSE
Aureole 1 Rocket 4.4 04:35:18 22° WSW 04:37:24 29° WNW 04:41:17 10° N
Cosmos 1953 Rocket 3.6 04:36:52 25° SSW 04:39:20 61° W 04:43:46 10° N
IRS-1D 4.4 04:37:20 10° N 04:41:58 34° WNW 04:44:36 21° WSW
Cosmos 1821 Rocket 4.4 04:36:52 10° NNW 04:42:28 40° W 04:46:40 17° SSW
MOS 1 Rocket 3.0 04:41:12 10° N 04:45:31 83° WNW 04:49:11 15° SSW
CZ-4B R/B 4.1 04:43:01 10° NNE 04:47:07 45° E 04:51:21 10° S
EXPRESS MD2 3.7 04:42:11 10° WNW 04:48:02 67° NNE 04:51:04 10° ESE
MOS 1-B 4.4 04:42:20 10° NNE 04:48:12 87° ESE 04:54:00 10° SSW
Cosmos 1378 3.9 04:49:39 10° S 04:53:18 52° E 04:56:57 10° NNE
Lacrosse 5 rocket 2.0 04:50:27 18° SSW 04:53:46 61° SE 04:58:21 10° NE
SL-27 R/B 3.4 04:52:50 23° WSW 04:54:21 34° WNW 04:57:41 10° N
ARIANE 5 R/B 3.7 04:52:38 10° N 04:57:01 28° WNW 05:00:02 16° WSW
Cosmos 1459 Rocket 4.5 04:55:07 10° N 05:01:13 65° E 05:07:24 10° SSE
Cosmos 1605 Rocket 4.2 04:57:01 10° NNW 05:03:02 51° W 05:08:56 10° SSW
CZ-2D R/B 4.2 04:59:44 10° N 05:03:30 35° WNW 05:06:08 17° SW
COSMOS 2455 3.8 04:58:58 10° NW 05:03:38 24° WSW 05:08:17 10° SSW
Cosmos 1452 Rocket 3.5 04:59:50 10° NNW 05:05:07 81° WSW 05:10:22 10° SSE
Okean O Rocket 1.9 05:00:56 10° NNE 05:05:24 71° ESE 05:09:49 10° S
ADEOS II 2.4 05:00:40 10° NNE 05:05:56 68° ESE 05:11:10 10° S
RESURS DK-1 3.8 05:04:08 15° W 05:06:33 25° NW 05:10:00 10° N
Cosmos 1733 3.6 05:04:04 10° NNW 05:07:39 40° W 05:11:12 10° SSW
NOSS 2-2 (E) 3.7 05:04:42 17° SW 05:07:51 67° NW 05:12:46 10° NE
Meteor 2-5 Rocket 3.8 05:04:22 10° S 05:10:04 90° SW 05:15:55 10° N
Cosmos 1339 Rocket 4.5 05:06:06 10° SSW 05:12:07 65° W 05:18:12 10° N
Cosmos 2278 3.7 05:07:26 10° NNW 05:13:12 83° WSW 05:18:54 10° SSE
Cosmos 1271 Rocket 4.3 05:11:04 10° NW 05:13:29 16° W 05:14:44 14° WSW
Cosmos 1818 3.6 05:08:43 12° SW 05:13:45 82° NW 05:19:14 10° NE
Cosmos 1697 Rocket 3.7 05:08:26 10° NNW 05:13:56 52° ENE 05:19:23 10° SE
COSMOS 2487 2.6 05:12:23 10° SSW 05:15:56 79° ESE 05:19:30 10° NNE
Orbus 7S? 2.5 05:14:33 10° NW 05:17:57 83° SW 05:20:30 10° SE
Cosmos 2369 3.7 05:14:08 10° NNW 05:19:53 76° WSW 05:25:36 10° SSE
EO 1 Del DPAF 3.3 05:16:18 10° SSE 05:20:09 86° ENE 05:24:03 10° NNW
Cosmos 1420 Rocket 4.0 05:18:29 10° NNW 05:23:51 85° WSW 05:29:09 10° SSE
Tiangong 1 1.3 05:22:00 12° W 05:24:23 41° SSW 05:27:06 10° ESE
Meteor 2-1 Rocket 4.4 05:24:37 10° N 05:30:16 81° ENE 05:36:00 10° SSE
Cosmos 1048 Rocket 4.4 05:26:34 10° S 05:31:39 65° ESE 05:36:44 10° NNE
Cosmos 2100 Rocket 4.0 05:26:09 10° NNW 05:32:20 70° W 05:38:26 10° S
CENTAUR R/B 3.4 05:25:09 10° NW 05:32:32 44° WSW 05:40:20 10° S
Abrixas 3.5 05:31:22 10° WNW 05:34:02 37° N 05:36:42 10° ENE
Resurs 1-4 Rocket 4.0 05:32:38 10° NNW 05:35:09 14° WNW 05:37:40 10° W
CZ-2D R/B 4.1 05:36:18 10° NNW 05:38:43 13° NW 05:41:08 10° W
PAYLOAD B 4.3 05:33:56 10° N 05:39:29 68° WNW 05:44:59 10° SSW
Cosmos 1269 Rocket 4.3 05:34:15 10° SSW 05:39:30 75° ESE 05:44:47 10° NNE
Cosmos 2098 Rocket 4.1 05:38:33 10° NW 05:40:04 13° W 05:41:31 10° WSW
Cosmos 2173 Rocket 4.1 05:36:38 10° NNW 05:42:53 64° W 05:49:01 10° S
NOSS 2-2 (D) 4.4 05:39:37 10° WSW 05:43:33 40° NW 05:48:13 10° NNE
Cosmos 2082 Rocket 2.4 05:38:37 10° SSW 05:44:19 83° ESE 05:50:04 10° NNE
Cosmos 1980 Rocket 3.1 05:41:03 10° NNW 05:46:41 57° ENE 05:52:16 10° SE
Meteor 2-17 Rocket 4.4 05:41:50 10° NNW 05:47:51 69° W 05:53:51 10° S
